Quad City International Airport
KMLI : now visible

Airfield :











YOU CAN JOIN US ON...

 
LOGIN :

Register | Disclaimer

   EN    FR    IT 

 









Legend :    VFR   Marginal VFR   IFR   Intensive IFR   Very Intensive IFR
Visi :
Ceiling :
>= 8 km
>= 3000ft
5 to 8 km
1000 to 3000 ft
1500m to 5 km
500 to 1000 ft
800 to 1500m
200 to 500 ft
< 800m
< 200 ft
Symbols :   Thunderstorms  Fog  Heavy snow  Heavy precipitations  Wind > 20 kt






- Airport Elevation : 590 ft
- IATA code : MLI


KMLI - Quad City International

CURRENT METAR :
  • 231752Z 19013G24KT 10SM CLR 26/17 A2993 RMK AO2 PK WND 16026/1731 SLP131 60002 T02610172 10261 20172 57018

EXPIRED METARs :
  • 231652Z 18011G23KT 10SM BKN100 23/16 A2995 RMK AO2 SLP139 T02280161
  • 231552Z 17010KT 10SM FEW060 BKN100 OVC120 19/15 A2996 RMK AO2 SLP145 T01940150

TAF KMLI
Valid from the 23 at 18:00 until the 24 at 18:00 UTC


231741Z 2318/2418 18011G23KT P6SM BKN100
FM240300 18010KT P6SM SCT080 BKN200 WS020/21040KT
FM241200 20014G22KT P6SM -SHRA BKN040
PROB30 2412/2418 3SM TSRA BKN030CB
KZAU FIR / North America



MET'MAP, your aeronautical weather chart ! - Copyright ORBIFLY December 2007 - Disclaimer

ORBIFLY MET'MAP TEAM :

Programming & Development : Alexandra Zaïnal
Concept & original design : Baudouin d'Aumeries
Assistance for programming : Marc-Olivier Méhu
Technical & hardware support : Manuel Goepfert

Contact : metmap@orbifly.com




SOURCES & CREDITS :

   NOAA       Earth
Advisory